timestamp,surface_pressure_avg,surface_temp_avg,battery_voltage,lat,long
2021-04-26 00:09:01+00:00,340.68300000000005,4.09,13.13,47.84626,-54.09684
2021-04-26 00:19:01+00:00,339.1930000000001,4.07,12.81,47.84626,-54.09684
2021-04-26 00:29:01+00:00,330.6931,4.09,12.81,47.84626,-54.09684
2021-04-26 00:39:01+00:00,320.668,4.1,12.81,47.84626,-54.09684
2021-04-26 00:49:01+00:00,316.0913,4.1,12.81,47.84626,-54.09684
2021-04-26 00:59:01+00:00,307.268,4.1,12.81,47.84626,-54.09684
2021-04-26 01:09:01+00:00,296.848,4.12,12.81,47.84626,-54.09684
2021-04-26 01:19:00+00:00,289.8897,4.1,12.65,47.84626,-54.09684
2021-04-26 01:29:00+00:00,280.3381,4.11,12.65,47.84626,-54.09684
2021-04-26 01:39:00+00:00,268.4114,4.17,12.65,47.84626,-54.09684
2021-04-26 01:49:00+00:00,258.9581,4.18,12.65,47.84626,-54.09684
2021-04-26 01:59:00+00:00,250.6498,4.17,12.65,47.84626,-54.09684
2021-04-26 02:09:00+00:00,238.3914,4.2,12.65,47.84626,-54.09684
2021-04-26 02:19:00+00:00,228.2248,4.33,12.65,47.84626,-54.09684
2021-04-26 02:29:00+00:00,221.5114,4.37,12.65,47.84626,-54.09684
2021-04-26 02:39:00+00:00,212.8231,4.36,12.65,47.84626,-54.09684
2021-04-26 02:49:00+00:00,204.2264,4.32,12.65,47.84626,-54.09684
2021-04-26 02:59:00+00:00,198.2964,4.31,12.65,47.84626,-54.09684
2021-04-26 03:09:00+00:00,192.2065,4.36,12.65,47.84626,-54.09684
2021-04-26 03:19:00+00:00,184.7798,4.38,12.65,47.84626,-54.09684
2021-04-26 03:29:00+00:00,181.1848,4.38,12.65,47.84626,-54.09684
2021-04-26 03:39:00+00:00,180.7664,4.35,12.65,47.84626,-54.09684
2021-04-26 03:49:00+00:00,175.8898,4.38,12.65,47.84626,-54.09684
2021-04-26 03:59:00+00:00,170.1665,4.4,12.65,47.84626,-54.09684
2021-04-26 04:09:00+00:00,170.1881,4.4,12.65,47.84626,-54.09684
2021-04-26 04:19:01+00:00,168.4015,4.39,12.65,47.84626,-54.09684
2021-04-26 04:29:01+00:00,160.4415,4.39,12.65,47.84626,-54.09684
2021-04-26 04:39:01+00:00,158.4032,4.4,12.65,47.84626,-54.09684
2021-04-26 04:49:01+00:00,164.7865,4.4,12.65,47.84626,-54.09684
2021-04-26 04:59:01+00:00,165.9165,4.4,12.65,47.84626,-54.09684
2021-04-26 05:09:01+00:00,164.5065,4.4,12.65,47.84626,-54.09684
2021-04-26 05:19:00+00:00,167.5465,4.4,12.57,47.84626,-54.09684
2021-04-26 05:29:00+00:00,170.9532,4.4,12.57,47.84626,-54.09684
2021-04-26 05:39:00+00:00,170.8148,4.4,12.57,47.84626,-54.09684
2021-04-26 05:49:00+00:00,172.7998,4.4,12.57,47.84626,-54.09684
2021-04-26 05:59:00+00:00,180.7015,4.4,12.57,47.84626,-54.09684
2021-04-26 06:09:00+00:00,184.8165,4.4,12.57,47.84626,-54.09684
2021-04-26 06:19:00+00:00,185.6948,4.4,12.57,47.84626,-54.09684
2021-04-26 06:29:00+00:00,191.1448,4.4,12.57,47.84626,-54.09684
2021-04-26 06:39:00+00:00,198.7931,4.4,12.57,47.84626,-54.09684
2021-04-26 06:49:00+00:00,202.6281,4.3,12.57,47.84626,-54.09684
2021-04-26 06:59:00+00:00,207.3781,4.3,12.57,47.84626,-54.09684
2021-04-26 07:09:00+00:00,217.2564,4.3,12.57,47.84626,-54.09684
2021-04-26 07:19:01+00:00,224.5464,4.3,12.57,47.84626,-54.09684
2021-04-26 07:29:01+00:00,228.5697,4.3,12.57,47.84626,-54.09684
2021-04-26 07:39:01+00:00,235.2431,4.3,12.57,47.84626,-54.09684
2021-04-26 07:49:01+00:00,240.9648,4.2,12.57,47.84626,-54.09684
2021-04-26 07:59:01+00:00,240.4114,4.2,12.57,47.84626,-54.09684
2021-04-26 08:09:01+00:00,243.4881,4.2,12.57,47.84626,-54.09684
2021-04-26 08:19:00+00:00,257.0598,4.2,12.49,47.84626,-54.09684
2021-04-26 08:29:00+00:00,268.8264,4.2,12.49,47.84626,-54.09684
2021-04-26 08:39:00+00:00,273.9047,4.2,12.49,47.84626,-54.09684
2021-04-26 08:49:00+00:00,279.8414,4.2,12.49,47.84626,-54.09684
2021-04-26 08:59:00+00:00,294.8063,4.19,12.49,47.84626,-54.09684
2021-04-26 09:09:00+00:00,305.3546,4.1,12.49,47.84626,-54.09684
2021-04-26 09:19:01+00:00,312.493,4.1,12.57,47.84626,-54.09684
2021-04-26 09:29:01+00:00,319.598,4.1,12.57,47.84626,-54.09684
2021-04-26 09:39:01+00:00,326.7913,4.1,12.57,47.84626,-54.09684
2021-04-26 09:49:01+00:00,335.49300000000005,4.1,12.57,47.84626,-54.09684
2021-04-26 09:59:01+00:00,342.473,4.07,12.57,47.84626,-54.09684
2021-04-26 10:09:01+00:00,344.8329,4.06,12.57,47.84626,-54.09684
2021-04-26 10:19:00+00:00,348.3296,4.08,12.65,47.84626,-54.09684
2021-04-26 10:29:00+00:00,355.1813,4.08,12.65,47.84626,-54.09684
2021-04-26 10:39:00+00:00,355.4729,4.08,12.65,47.84626,-54.09684
2021-04-26 10:49:00+00:00,355.31800000000015,4.09,12.65,47.84626,-54.09684
2021-04-26 10:59:00+00:00,361.9196,4.02,12.65,47.84626,-54.09684
2021-04-26 11:09:00+00:00,364.3795,4.03,12.65,47.84626,-54.09684
2021-04-26 11:19:01+00:00,358.6896,4.03,13.29,47.84626,-54.09684
2021-04-26 11:29:01+00:00,359.7712,4.0,13.29,47.84626,-54.09684
2021-04-26 11:39:01+00:00,363.9095,4.0,13.29,47.84626,-54.09684
2021-04-26 11:49:01+00:00,357.2046,4.0,13.29,47.84626,-54.09684
2021-04-26 11:59:01+00:00,349.7329,4.0,13.29,47.84626,-54.09684
2021-04-26 12:09:01+00:00,350.1479,4.0,13.29,47.84626,-54.09684
2021-04-26 12:19:01+00:00,349.1346,4.0,14.08,47.84626,-54.09684
2021-04-26 12:29:01+00:00,341.4297,4.0,14.08,47.84626,-54.09684
2021-04-26 12:39:01+00:00,338.1047,3.99,14.08,47.84626,-54.09684
2021-04-26 12:49:01+00:00,338.5396,3.99,14.08,47.84626,-54.09684
2021-04-26 12:59:01+00:00,330.338,3.98,14.08,47.84626,-54.09684
2021-04-26 13:09:01+00:00,319.5046,3.95,14.08,47.84626,-54.09684
2021-04-26 13:19:00+00:00,317.5764,3.95,14.48,47.84626,-54.09684
2021-04-26 13:29:00+00:00,313.0896,3.97,14.48,47.84626,-54.09684
2021-04-26 13:39:00+00:00,296.3164,3.98,14.48,47.84626,-54.09684
2021-04-26 13:49:00+00:00,285.4414,4.0,14.48,47.84626,-54.09684
2021-04-26 13:59:00+00:00,282.6431,4.0,14.48,47.84626,-54.09684
2021-04-26 14:09:00+00:00,270.6231,4.0,14.48,47.84626,-54.09684
2021-04-26 14:19:01+00:00,252.6464,4.0,14.32,47.84626,-54.09684
2021-04-26 14:29:01+00:00,244.9748,4.0,14.32,47.84626,-54.09684
2021-04-26 14:39:01+00:00,239.9514,4.0,14.32,47.84626,-54.09684
2021-04-26 14:49:01+00:00,230.3598,4.0,14.32,47.84626,-54.09684
2021-04-26 14:59:01+00:00,220.3214,4.03,14.32,47.84626,-54.09684
2021-04-26 15:09:01+00:00,213.7081,4.26,14.32,47.84626,-54.09684
2021-04-26 15:19:00+00:00,206.2864,4.63,14.32,47.84626,-54.09684
2021-04-26 15:29:00+00:00,194.5831,4.76,14.32,47.84626,-54.09684
2021-04-26 15:39:00+00:00,186.8965,4.77,14.32,47.84626,-54.09684
2021-04-26 15:49:00+00:00,184.9281,4.6,14.32,47.84626,-54.09684
2021-04-26 15:59:00+00:00,178.9565,4.63,14.32,47.84626,-54.09684
2021-04-26 16:09:00+00:00,171.9015,4.6,14.32,47.84626,-54.09684
2021-04-26 16:19:01+00:00,168.9048,4.6,14.32,47.84626,-54.09684
2021-04-26 16:29:01+00:00,168.7482,4.5,14.32,47.84626,-54.09684
2021-04-26 16:39:01+00:00,166.9781,4.5,14.32,47.84626,-54.09684
2021-04-26 16:49:01+00:00,166.0332,4.5,14.32,47.84626,-54.09684
2021-04-26 16:59:01+00:00,167.9748,4.49,14.32,47.84626,-54.09684
2021-04-26 17:09:01+00:00,169.6682,4.4,14.32,47.84626,-54.09684
2021-04-26 17:19:01+00:00,168.7648,4.4,14.24,47.84626,-54.09684
2021-04-26 17:29:01+00:00,169.6265,4.3,14.24,47.84626,-54.09684
2021-04-26 17:39:01+00:00,173.7515,4.24,14.24,47.84626,-54.09684
2021-04-26 17:49:01+00:00,175.0948,4.3,14.24,47.84626,-54.09684
2021-04-26 17:59:01+00:00,176.0582,4.43,14.24,47.84626,-54.09684
2021-04-26 18:09:01+00:00,182.5848,4.5,14.24,47.84626,-54.09684
2021-04-26 18:19:00+00:00,189.7065,4.6,14.08,47.84626,-54.09684
2021-04-26 18:29:00+00:00,192.9181,4.7,14.08,47.84626,-54.09684
2021-04-26 18:39:00+00:00,198.7848,4.79,14.08,47.84626,-54.09684
2021-04-26 18:49:00+00:00,207.0331,4.7,14.08,47.84626,-54.09684
2021-04-26 18:59:00+00:00,210.6547,4.5,14.08,47.84626,-54.09684
2021-04-26 19:09:00+00:00,214.7931,4.4,14.08,47.84626,-54.09684
2021-04-26 19:19:01+00:00,223.7664,4.47,14.0,47.84626,-54.09684
2021-04-26 19:29:01+00:00,229.6464,4.4,14.0,47.84626,-54.09684
2021-04-26 19:39:01+00:00,233.578,4.39,14.0,47.84626,-54.09684
2021-04-26 19:49:01+00:00,243.8331,4.4,14.0,47.84626,-54.09684
2021-04-26 19:59:01+00:00,255.3114,4.4,14.0,47.84626,-54.09684
2021-04-26 20:09:01+00:00,259.5064,4.37,14.0,47.84626,-54.09684
2021-04-26 20:19:01+00:00,262.3564,4.36,13.76,47.84626,-54.09684
2021-04-26 20:29:01+00:00,272.2331,4.37,13.76,47.84626,-54.09684
2021-04-26 20:39:01+00:00,281.4197,4.4,13.76,47.84626,-54.09684
2021-04-26 20:49:01+00:00,284.8714,4.33,13.76,47.84626,-54.09684
2021-04-26 20:59:01+00:00,292.668,4.39,13.76,47.84626,-54.09684
2021-04-26 21:09:01+00:00,309.4347,4.4,13.76,47.84626,-54.09684
2021-04-26 21:19:01+00:00,319.2747,4.4,13.44,47.84626,-54.09684
2021-04-26 21:29:01+00:00,320.5747,4.4,13.44,47.84626,-54.09684
2021-04-26 21:39:01+00:00,328.7546,4.4,13.44,47.84626,-54.09684
2021-04-26 21:49:01+00:00,345.5046,4.4,13.44,47.84626,-54.09684
2021-04-26 21:59:01+00:00,353.2846,4.4,13.44,47.84626,-54.09684
2021-04-26 22:09:01+00:00,356.6345,4.4,13.44,47.84626,-54.09684
2021-04-26 22:19:01+00:00,368.1829,4.4,13.21,47.84626,-54.09684
2021-04-26 22:29:01+00:00,379.2096,4.4,13.21,47.84626,-54.09684
2021-04-26 22:39:01+00:00,381.7129,4.4,13.21,47.84626,-54.09684
2021-04-26 22:49:01+00:00,384.5079,4.4,13.21,47.84626,-54.09684
2021-04-26 22:59:01+00:00,389.1996,4.4,13.21,47.84626,-54.09684
2021-04-26 23:09:01+00:00,389.5112,4.4,13.21,47.84626,-54.09684
2021-04-26 23:19:01+00:00,391.3713,4.4,12.81,47.84626,-54.09684
2021-04-26 23:29:01+00:00,389.4778,4.41,12.81,47.84626,-54.09684
2021-04-26 23:39:01+00:00,388.1429,4.44,12.81,47.84626,-54.09684
2021-04-26 23:49:01+00:00,388.3013,4.47,12.81,47.84626,-54.09684
2021-04-26 23:59:01+00:00,387.8562,4.49,12.81,47.84626,-54.09684
